Location: Julian California
(33.0790°N, 116.6010°W)
Time: 17:19:36
(UTC-07:00)

Cosmos 2263 Rocket - Pass Details

Date: 14 June 2018
Orbit: 823 x 849 km, 71.0° (Epoch: 19 October)

Event Time Altitude Azimuth Distance (km) Brightness Sun altitude
Rises 21:48:25 0° 206° (SSW) 3,392 5.1 -19.4°
Reaches altitude 10° 21:50:52 10° 209° (SSW) 2,460 4.4 -19.7°
Maximum altitude 21:56:29 67° 292° (WNW) 913 2.5 -20.5°
Drops below altitude 10° 22:02:07 10° 15° (NNE) 2,464 5.1 -21.3°
Sets 22:04:36 0° 18° (NNE) 3,399 5.8 -21.6°
